OpenBCM V1.13 (Linux)

Packet Radio Mailbox

DB0FHN

[JN59NK Nuernberg]

 Login: GUEST





  
I6KZR  > KEPLER   04.03.03 23:40l 1460 Lines 39193 Bytes #999 (0) @ WW
BID : 27263_IK6WID
Read: DB0FHN GUEST
Subj: Old Istantrak Keplerians #063
Path: DB0FHN<DB0ZWI<DB0CHZ<DB0FBG<DB0TUD<DB0GRL<SR6BBA<OK0PCC<OK0NAG<OK0PPL<
      RZ6HXA<SP7MGD<7M3TJZ<ON0AR<IK6PYS<IK6PYS<I6ZLO<IK6WID
Sent: 030304/2121Z @:IK6WID.#AP.IMAR.ITA.EU #:27263 [MONTE URANO]  FBB7.00i
From: I6KZR@IK6WID.#AP.IMAR.ITA.EU
To  : KEPLER@WW


Satellite: OSCAR 7
Catalog number: 07530
Epoch time:      103062.14151959
Element set:     153 
Inclination:      101.7590 deg
RA of node:       109.8095 deg
Eccentricity:    0.0012233
Arg of perigee:    54.3547 deg
Mean anomaly:     305.8660 deg
Mean motion:   12.53564661 rev/day
Decay rate:   -2.9000E-007 rev/day^2
Epoch rev:           29476
Checksum:              293

Satellite: GOES 2
Catalog number: 10061
Epoch time:      103062.76944659
Element set:     106 
Inclination:       14.1377 deg
RA of node:        13.3235 deg
Eccentricity:    0.0012624
Arg of perigee:   200.8418 deg
Mean anomaly:     159.1157 deg
Mean motion:    0.99396945 rev/day
Decay rate:   -2.2100E-006 rev/day^2
Epoch rev:            3896
Checksum:              285

Satellite: GOES 3
Catalog number: 10953
Epoch time:      103060.90265955
Element set:     939 
Inclination:       13.4156 deg
RA of node:        17.1454 deg
Eccentricity:    0.0005841
Arg of perigee:   343.6642 deg
Mean anomaly:      16.3376 deg
Mean motion:    1.00279493 rev/day
Decay rate:   -1.1099E-006 rev/day^2
Epoch rev:            4361
Checksum:              291

Satellite: GOES 6
Catalog number: 14050
Epoch time:      103062.00841580
Element set:     427 
Inclination:       10.4180 deg
RA of node:        35.4806 deg
Eccentricity:    0.0004593
Arg of perigee:   345.1253 deg
Mean anomaly:      14.9284 deg
Mean motion:    1.00306627 rev/day
Decay rate:    2.0999E-007 rev/day^2
Epoch rev:           13076
Checksum:              265

Satellite: OSCAR 10
Catalog number: 14129
Epoch time:      103053.29347507
Element set:     920 
Inclination:       25.9661 deg
RA of node:       163.6642 deg
Eccentricity:    0.6025305
Arg of perigee:   329.8586 deg
Mean anomaly:       6.1874 deg
Mean motion:    2.05867335 rev/day
Decay rate:   -1.3500E-006 rev/day^2
Epoch rev:           12014
Checksum:              290

Satellite: OSCAR 11 (UoSA
Catalog number: 14781
Epoch time:      103063.21883261
Element set:     86 
Inclination:       98.1193 deg
RA of node:        37.2481 deg
Eccentricity:    0.0009444
Arg of perigee:   159.7710 deg
Mean anomaly:     200.3876 deg
Mean motion:   14.78028589 rev/day
Decay rate:    1.0329E-005 rev/day^2
Epoch rev:            1825
Checksum:              312

Satellite: NOAA 10
Catalog number: 16969
Epoch time:      103062.94004773
Element set:     684 
Inclination:       98.7308 deg
RA of node:        57.0232 deg
Eccentricity:    0.0013419
Arg of perigee:    50.3369 deg
Mean anomaly:     309.8994 deg
Mean motion:   14.27068764 rev/day
Decay rate:    1.2199E-006 rev/day^2
Epoch rev:           85581
Checksum:              343

Satellite: GOES 7
Catalog number: 17561
Epoch time:      103062.47831763
Element set:     874 
Inclination:        7.6258 deg
RA of node:        55.4682 deg
Eccentricity:    0.0005432
Arg of perigee:   264.7527 deg
Mean anomaly:     193.2055 deg
Mean motion:    1.00256385 rev/day
Decay rate:    3.3000E-007 rev/day^2
Epoch rev:            4187
Checksum:              298

Satellite: COSMOS 1861
Catalog number: 18129
Epoch time:      103063.21405773
Element set:     209 
Inclination:       82.9269 deg
RA of node:       136.4737 deg
Eccentricity:    0.0011033
Arg of perigee:   181.7289 deg
Mean anomaly:     178.3827 deg
Mean motion:   13.72702110 rev/day
Decay rate:    4.7000E-007 rev/day^2
Epoch rev:           78638
Checksum:              318

Satellite: EUTELSAT 1-F4 
Catalog number: 18351
Epoch time:      103059.07635020
Element set:     44 
Inclination:        7.2160 deg
RA of node:        58.6101 deg
Eccentricity:    0.0006917
Arg of perigee:   200.9393 deg
Mean anomaly:     159.1775 deg
Mean motion:    0.98687115 rev/day
Decay rate:    1.3000E-007 rev/day^2
Epoch rev:            4277
Checksum:              282

Satellite: NOAA 11
Catalog number: 19531
Epoch time:      103062.95116295
Element set:     521 
Inclination:       98.8997 deg
RA of node:       144.2882 deg
Eccentricity:    0.0011882
Arg of perigee:   160.8217 deg
Mean anomaly:     199.3405 deg
Mean motion:   14.14543314 rev/day
Decay rate:    1.3799E-006 rev/day^2
Epoch rev:           74469
Checksum:              336

Satellite: ASTRA 1A
Catalog number: 19688
Epoch time:      103061.76933815
Element set:     583 
Inclination:        1.4247 deg
RA of node:        94.7158 deg
Eccentricity:    0.0003492
Arg of perigee:   232.2589 deg
Mean anomaly:     115.2778 deg
Mean motion:    1.00269923 rev/day
Decay rate:    1.8999E-007 rev/day^2
Epoch rev:            3231
Checksum:              326

Satellite: OSCAR 14 (UOSA
Catalog number: 20437
Epoch time:      103062.64178867
Element set:     177 
Inclination:       98.2686 deg
RA of node:       105.6286 deg
Eccentricity:    0.0010894
Arg of perigee:   158.1862 deg
Mean anomaly:     201.9785 deg
Mean motion:   14.31241365 rev/day
Decay rate:    7.5000E-007 rev/day^2
Epoch rev:           68436
Checksum:              333

Satellite: OSCAR 15 (UOSA
Catalog number: 20438
Epoch time:      103061.62147120
Element set:     795 
Inclination:       98.2459 deg
RA of node:        93.7260 deg
Eccentricity:    0.0009650
Arg of perigee:   172.4332 deg
Mean anomaly:     187.6999 deg
Mean motion:   14.30200580 rev/day
Decay rate:    4.4999E-007 rev/day^2
Epoch rev:           68388
Checksum:              343

Satellite: OSCAR 16 (PACS
Catalog number: 20439
Epoch time:      103062.23515547
Element set:     859 
Inclination:       98.3149 deg
RA of node:       117.0003 deg
Eccentricity:    0.0011016
Arg of perigee:   166.4736 deg
Mean anomaly:     193.6749 deg
Mean motion:   14.31476064 rev/day
Decay rate:    1.1299E-006 rev/day^2
Epoch rev:           68434
Checksum:              314

Satellite: OSCAR 17 (DOVE
Catalog number: 20440
Epoch time:      103061.66253153
Element set:     742 
Inclination:       98.3367 deg
RA of node:       120.3738 deg
Eccentricity:    0.0010948
Arg of perigee:   166.8326 deg
Mean anomaly:     193.3141 deg
Mean motion:   14.31753899 rev/day
Decay rate:    6.8999E-007 rev/day^2
Epoch rev:           68433
Checksum:              338

Satellite: OSCAR 18 (WEBE
Catalog number: 20441
Epoch time:      103063.19374879
Element set:     25 
Inclination:       98.3312 deg
RA of node:       121.0452 deg
Eccentricity:    0.0011766
Arg of perigee:   163.5849 deg
Mean anomaly:     196.5717 deg
Mean motion:   14.31557829 rev/day
Decay rate:    9.8999E-007 rev/day^2
Epoch rev:           68453
Checksum:              351

Satellite: OSCAR 19 (LUSA
Catalog number: 20442
Epoch time:      103063.17061677
Element set:     976 
Inclination:       98.3447 deg
RA of node:       124.0716 deg
Eccentricity:    0.0011834
Arg of perigee:   162.8286 deg
Mean anomaly:     197.3298 deg
Mean motion:   14.31721185 rev/day
Decay rate:    9.6999E-007 rev/day^2
Epoch rev:           68458
Checksum:              357

Satellite: JAS 1B (FUJI 2
Catalog number: 20480
Epoch time:      103061.94088194
Element set:     469 
Inclination:       99.0473 deg
RA of node:        22.3574 deg
Eccentricity:    0.0540399
Arg of perigee:   335.8831 deg
Mean anomaly:      21.7795 deg
Mean motion:   12.83330887 rev/day
Decay rate:    3.9999E-008 rev/day^2
Epoch rev:           61210
Checksum:              344

Satellite: HST
Catalog number: 20580
Epoch time:      103063.15486111
Element set:     346 
Inclination:       28.4679 deg
RA of node:       309.8150 deg
Eccentricity:    0.0003770
Arg of perigee:    58.2666 deg
Mean anomaly:      58.5225 deg
Mean motion:   14.97875342 rev/day
Decay rate:    3.5280E-005 rev/day^2
Epoch rev:           50467
Checksum:              311

Satellite: EUTELSAT 2-F1
Catalog number: 20777
Epoch time:      103058.86735716
Element set:     40 
Inclination:        3.5291 deg
RA of node:        84.4541 deg
Eccentricity:    0.0003426
Arg of perigee:   323.2557 deg
Mean anomaly:     137.7336 deg
Mean motion:    1.00272316 rev/day
Decay rate:   -1.1600E-006 rev/day^2
Epoch rev:            2619
Checksum:              273

Satellite: FENGYUN 1B
Catalog number: 20788
Epoch time:      103063.16329474
Element set:     895 
Inclination:       99.0271 deg
RA of node:        45.2115 deg
Eccentricity:    0.0016106
Arg of perigee:   189.8540 deg
Mean anomaly:     170.2312 deg
Mean motion:   14.02142084 rev/day
Decay rate:    2.8399E-006 rev/day^2
Epoch rev:           63944
Checksum:              304

Satellite: EUTELSAT 2-F2
Catalog number: 21056
Epoch time:      103058.89572918
Element set:     621 
Inclination:        2.7523 deg
RA of node:        87.8292 deg
Eccentricity:    0.0003750
Arg of perigee:   291.4980 deg
Mean anomaly:     148.8290 deg
Mean motion:    1.00271203 rev/day
Decay rate:    1.0200E-006 rev/day^2
Epoch rev:            3197
Checksum:              282

Satellite: INFORMATOR 1
Catalog number: 21087
Epoch time:      103061.71158518
Element set:     614 
Inclination:       82.9429 deg
RA of node:       308.4158 deg
Eccentricity:    0.0033799
Arg of perigee:   215.1315 deg
Mean anomaly:     144.7608 deg
Mean motion:   13.74927710 rev/day
Decay rate:    6.0999E-007 rev/day^2
Epoch rev:           60655
Checksum:              329

Satellite: COSMOS 2123
Catalog number: 21089
Epoch time:      103061.84382724
Element set:     497 
Inclination:       82.9240 deg
RA of node:       172.2747 deg
Eccentricity:    0.0027616
Arg of perigee:   252.2517 deg
Mean anomaly:     107.5623 deg
Mean motion:   13.74405557 rev/day
Decay rate:    6.3999E-007 rev/day^2
Epoch rev:           60547
Checksum:              433

